Hourly Data Report for September 27, 2017

All times are specified in Local Standard Time (LST). Add 1 hour to adjust for Daylight Saving Time where and when it is observed.

QIKIQTARJUAQ A
NUNAVUT

67°32'48.000" N
64°01'54.000" W
5.50 m
2400577
YVM

Download Data

Hourly Data (September 2017)
Hourly Data Report for September 27, 2017
Temp Definition
°C
Dew Point Temp Definition
°C
Rel Hum Definition
%
Wind Dir Definition
10's deg

Wind Spd Definition
km/h
Visibility Definition
km
Stn Press Definition
kPa
Hmdx Definition


Wind Chill Definition


Weather Definition


TIME
00:00 Legend Double Dagger 0.3 -1.8 86 36 35 16.1 101.00     LegendNANA
01:00 Legend Double Dagger -0.2 -2.4 85 35 30 16.1 101.02   -7 Snow
02:00 Legend Double Dagger -0.1 -2.7 83 35 21 12.9 101.02   -6 Snow
03:00 Legend Double Dagger 0.0 -2.9 81 34 22 16.1 101.04   -6 LegendNANA
04:00 Legend Double Dagger 0.0 -2.7 82 36 34 16.1 101.06   -7 LegendNANA
05:00 Legend Double Dagger 0.0 -2.8 82 36 18 16.1 101.06   -5 LegendNANA
06:00 Legend Double Dagger -0.1 -3.6 77 35 18 16.1 101.06   -5 LegendNANA
07:00 Legend Double Dagger -0.1 -2.8 82 35 18 16.1 101.03   -5 LegendNANA
08:00 Legend Double Dagger 0.1 -3.1 79 36 22 16.1 101.01     LegendNANA
09:00 Legend Double Dagger 0.0 -2.7 82 36 26 16.1 100.97   -6 LegendNANA
10:00 Legend Double Dagger 0.2 -3.2 78 33 24 16.1 100.96     LegendNANA
11:00 Legend Double Dagger 0.2 -2.5 82 35 22 16.1 100.94     LegendNANA
12:00 Legend Double Dagger 0.2 -2.4 83 35 22 16.1 100.96     LegendNANA
13:00 Legend Double Dagger -0.4 -1.8 91 36 28 9.7 100.97   -7 Snow
14:00 Legend Double Dagger -0.3 -2.2 87 36 22 16.1 100.94   -6 LegendNANA
15:00 Legend Double Dagger -0.2 -2.4 85 1 22 16.1 100.89   -6 LegendNANA
16:00 Legend Double Dagger 0.0 -3.0 80 1 21 16.1 100.86   -5 LegendNANA
17:00 Legend Double Dagger -0.1 -3.3 79 3 8 16.1 100.78   -3 LegendNANA
18:00 Legend Double Dagger -0.1 -3.8 76 2 9 16.1 100.73   -3 LegendNANA
19:00 Legend Double Dagger -0.1 -2.9 82 1 24 16.1 100.72   -6 LegendNANA
20:00 Legend Double Dagger -0.3 -2.6 84 1 26 16.1 100.66   -6 LegendNANA
21:00 Legend Double Dagger -0.6 -3.2 83 2 21 16.1 100.63   -6 LegendNANA
22:00 Legend Double Dagger -0.7 -3.7 80 3 13 16.1 100.63   -5 LegendNANA
23:00 Legend Double Dagger -0.8 -3.6 81 4 9 16.1 100.62   -4 LegendNANA

Notes on Data Quality.

Legend

  • E = Estimated
  • M = Missing
  • NA = Not Available
  • ‡ = Partner data that is not subject to review by the National Climate Archives
Date modified: